Location: Campo Alegre
(10.4289°N, 66.6519°W)
Time: 02:12:37
(UTC+00:00)

BlueWalker 3 - Visible Passes

Search period start: 18 July 2024 00:00
Search period end: 28 July 2024 00:00
Orbit: 480 x 491 km, 53.2° (Epoch: 17 July)

Date Brightness Start Highest point End Pass type
(mag) Time Alt. Az. Time Alt. Az. Time Alt. Az.
18 Jul 2.9 23:32:48 10° NW 23:36:20 42° WSW 23:39:51 10° SSE visible
23 Jul 4.6 09:41:10 10° SSE 09:43:34 16° ESE 09:45:57 10° E visible
24 Jul 4.6 09:15:19 10° SSE 09:17:24 14° ESE 09:19:28 10° E visible
25 Jul 4.6 08:49:33 10° SSE 08:51:14 13° ESE 08:52:54 10° E visible
26 Jul 4.7 08:24:00 10° SE 08:25:02 11° ESE 08:26:06 10° ESE visible
27 Jul 2.7 09:33:54 14° WSW 09:36:40 35° NW 09:40:10 10° NNE visible
